Home   Weather   Trondheim   Past weeks

Flag for Norway Past Weather in Trondheim, Norway — Yesterday and Last 2 Weeks

Now
68 °F

Passing clouds.


Feels Like: 68 °F
Forecast: 54 / 72 °F
Wind: 3 mph from Northwest

Location: Trondheim / Vaernes

Current Time: Jul 22, 2017 at 1:00:24 pm

Latest Report: Jul 22, 2017 at 12:20 pm


Visibility: N/A

Pressure: 30.09 "Hg

Humidity: 60%

Dew Point: 54 °F

Location of TrondheimLocation

Past Weather in Trondheim — Graph

°F

Trondheim Temperature Yesterday

Maximum temperature yesterday: 79 °F (at 12:50 pm)
Minimum temperature yesterday: 57 °F (at 3:50 am)
Average temperature yesterday: 69 °F

High & Low Weather Summary for the Past Weeks

 TemperatureHumidityPressure
High79 °F (Jul 21, 12:50 pm)100% (Jul 17, 1:50 am)30.12 "Hg (Jul 17, 1:50 am)
Low41 °F (Jul 15, 3:50 am)39% (Jul 21, 12:50 pm)29.62 "Hg (Jul 12, 12:20 am)
Average56 °F76%29.83 "Hg
* Reported Jul 7 11:20 am — Jul 22 11:50 am, Trondheim. Weather by CustomWeather, © 2017

Note: Actual official high and low records may vary slightly from our data, if they occured in-between our weather recording intervals... More about our weather records

Advertising

Trondheim Weather History for the Previous 24 Hours

Scroll right to see more
 ConditionsComfort  
Time TempWeatherWind HumidityBarometerVisibility
11:50 am
Sat, Jul 22
66 °FScattered clouds.3 mph68%30.09 "HgN/A
11:20 am68 °FScattered clouds.3 mph64%30.09 "HgN/A
10:50 am64 °FPartly sunny.2 mph73%30.09 "HgN/A
10:20 am64 °FPartly sunny.No wind78%30.09 "HgN/A
9:50 am61 °FPartly sunny.2 mph83%30.09 "HgN/A
8:50 am59 °FPartly sunny.6 mph82%30.09 "HgN/A
8:20 am57 °FPartly sunny.7 mph88%30.09 "HgN/A
7:20 am57 °FPartly sunny.7 mph82%30.09 "HgN/A
6:20 am55 °FPartly sunny.8 mph88%30.09 "HgN/A
5:20 am55 °FScattered clouds.7 mph88%30.09 "HgN/A
4:50 am55 °FScattered clouds.7 mph88%30.09 "HgN/A
3:50 am55 °FPassing clouds.7 mph88%30.07 "HgN/A
2:50 am57 °FClear.3 mph88%30.07 "Hg10 mi
1:50 am61 °FClear.7 mph83%30.07 "HgN/A
1:20 am61 °FClear.13 mph77%30.04 "HgN/A
12:50 am63 °FPassing clouds.9 mph73%30.04 "HgN/A
12:20 am63 °FClear.15 mph68%30.04 "Hg10 mi
11:50 pm
Fri, Jul 21
63 °FPassing clouds.8 mph77%30.01 "HgN/A
11:20 pm63 °FClear.13 mph73%30.01 "Hg10 mi
10:50 pm64 °FClear.12 mph73%29.98 "Hg10 mi
10:20 pm66 °FSunny.14 mph64%29.98 "Hg10 mi
9:20 pm68 °FSunny.14 mph56%29.95 "Hg10 mi
8:50 pm68 °FPassing clouds.10 mph64%29.95 "HgN/A
8:20 pm68 °FSunny.14 mph64%29.92 "Hg10 mi
7:50 pm72 °FSunny.15 mph53%29.92 "Hg10 mi
7:20 pm70 °FSunny.12 mph64%29.92 "Hg10 mi
6:50 pm72 °FSunny.13 mph57%29.89 "Hg10 mi
6:20 pm73 °FSunny.12 mph53%29.89 "Hg10 mi
5:50 pm75 °FSunny.10 mph50%29.86 "Hg10 mi
5:20 pm77 °FSunny.10 mph42%29.86 "Hg10 mi
4:50 pm77 °FPassing clouds.10 mph44%29.86 "HgN/A
4:20 pm77 °FSunny.10 mph44%29.86 "Hg10 mi
3:50 pm77 °FSunny.10 mph47%29.86 "Hg10 mi
3:20 pm75 °FSunny.13 mph50%29.86 "Hg10 mi
2:50 pm75 °FSunny.13 mph54%29.86 "Hg10 mi
2:20 pm73 °FSunny.16 mph50%29.86 "Hg10 mi
1:50 pm79 °FSunny.14 mph42%29.83 "Hg10 mi
1:20 pm79 °FSunny.5 mph39%29.83 "Hg10 mi
Weather by CustomWeather, © 2017

See weather overviewHow to use our weather pages